Regional Weather Roundup
Issued by NWS Nashville, TN

Home | Current Version | Previous Version | Text Only | Print | Product List | Glossary On
Versions: 1 2 3 4 5 6 7 8 9 10 11 12 13 14 15 16 17 18 19 20 21 22 23 24 25 26 27 28 29 30 31 32 33 34 35 36 37 38 39 40 41 42 43 44 45 46 47 48 49 50
000
ASUS44 KOHX 041710
RWROHX
MIDDLE TENNESSEE HOURLY WEATHER ROUNDUP
NATIONAL WEATHER SERVICE NASHVILLE TN
1200 PM CDT FRI SEP 04 2015

NOTE: "FAIR" INDICATES FEW OR NO CLOUDS BELOW 12,000 FEET WITH
NO SIGNIFICANT WEATHER AND/OR OBSTRUCTIONS TO VISIBILITY.

* THESE REPORTS ARE NOT UNDER NWS QUALITY CONTROL AND MAY NOT
  REPORT WEATHER SUCH AS PRECIPITATION AND FOG.


TNZ005>011-023>034-057-059-062>066-078-080-041800
...NORTHERN MIDDLE TENNESSEE...

CITY           SKY/WX    TMP DP  RH WIND       PRES   REMARKS
CLARKSVILLE    SUNNY     90  65  43 E6        30.04F HX  92
CROSSVILLE     MOSUNNY   85  63  47 NE7       30.12F
DICKSON        SUNNY     90  66  45 VRB3      30.06S HX  92
NASHVILLE      MOSUNNY   91  63  39 VRB6      30.05F HX  92
ROCKWOOD       SUNNY     85  68  56 VRB6      30.11
SMYRNA         MOSUNNY   98  68  37 S5        30.05F HX 103
$$
TNZ056-058-060-061-075>077-079-093>097-041800
...SOUTHERN MIDDLE TENNESSEE...

CITY           SKY/WX    TMP DP  RH WIND       PRES   REMARKS
COLUMBIA       MOSUNNY   90  68  48 NE5       30.04R HX  93
LEWISBURG      SUNNY     89  67  48 NE3       30.04F HX  92
MCMINNVILLE    SUNNY     88  72  58 N8        30.07S HX  94
SHELBYVILLE    MOSUNNY   91  70  49 SE5       30.06S HX  97
TULLAHOMA      MOSUNNY   86  64  48 N5        30.07F
WINCHESTER     MOSUNNY   88  68  51 E7        30.05F HX  91
$$


...KEY TO REMARKS...
VSB - VISIBILITY IN MILES
WCI - WIND CHILL INDEX
HX  - HEAT INDEX




USA.gov is the U.S. government's official web portal to all federal, state and local government web resources and services.